Location: Lafig�re
(44.4503°N, 4.0357°E)
Time: 15:03:27
(UTC+00:00)

Vanguard 2 Rocket - Pass Details

Date: 01 February 2021
Orbit: 554 x 3325 km, 32.9° (Epoch: 06 March)

Event Time Altitude Azimuth Distance (km) Brightness Sun altitude
Rises 18:49:07 0° 271° (W) 5,510 12.5 -20.8°
Reaches altitude 10° 18:56:38 10° 243° (WSW) 3,684 10.9 -22.2°
Maximum altitude 18:59:01 11° 228° (SW) 3,313 10.4 -22.6°
Drops below altitude 10° 19:01:09 10° 212° (SSW) 3,160 10.1 -23.0°
Sets 19:05:57 0° 178° (S) 3,562 9.9 -23.8°
